Weather History for Eau Claire, WI

Change the Weather History Date:

Tuesday, July 23, 2013

  Actual Average Record
Temperature  
Mean Temperature 67 °F 72 °F  
Max Temperature 76 °F 83 °F 105 °F (1934)
Min Temperature 57 °F 60 °F 48 °F (2003)
Degree Days  
Heating Degree Days 0 0  
Month to date heating degree days 0 2  
Since 1 June heating degree days 63 64  
Since 1 July heating degree days 0 2  
Cooling Degree Days 2 7  
Month to date cooling degree days 230 160  
Year to date cooling degree days 352 312  
Since 1 June cooling degree days 320 280  
Growing Degree Days 16 (Base 50)    
Moisture  
Dew Point 51 °F    
Average Humidity 62    
Maximum Humidity 86    
Minimum Humidity 38    
Precipitation  
Precipitation 0.00 in 0.12 in 1.40 in (2011)
Month to date precipitation 0.51 2.85  
Year to date precipitation 26.42 16.62  
Snow  
Snow 0.00 in 0.00 in 0.00 in ()
Month to date snowfall 0.0 0.0  
Since 1 June snowfall 0.0 0.0  
Since 1 July snowfall 0.0 0.0  
Snow Depth 0.00 in    
Sea Level Pressure  
Sea Level Pressure 29.93 in    
Wind  
Wind Speed 6 mph (North)    
Max Wind Speed 15 mph    
Max Gust Speed 22 mph    
Visibility 10 miles    
Events      
T = Trace of Precipitation, MM = Missing Value Source: NWS Daily Summary

Daily Weather History Graph

Daily Weather History Graph

Search for Another Location

Airport:

Trip Planner

Search our weather history database for the weather conditions in past years. The results will help you decide how hot, cold, wet, or windy it might be!

Date:

Astronomy

Jul. 23, 2013 Rise Set
Actual Time 5:42 AM CDT 8:42 PM CDT
Civil Twilight 5:07 AM CDT 9:16 PM CDT
Nautical Twilight 4:22 AM CDT 10:01 PM CDT
Astronomical Twilight 3:29 AM CDT 10:53 PM CDT
Moon 9:03 PM CDT (7/23) 6:56 AM CDT (7/23)
Length of Visible Light 16h 09m
Length of Day
14h 59m
Full, 99% of the Moon is Illuminated
Jul 23
Full
Jul 29
Last Quarter
Aug 6
New
Aug 14
First Quarter
Aug 20
Full

Hourly Weather History & Observations

Time (CDT) Temp. Dew Point Humidity Pressure Visibility Wind Dir Wind Speed Gust Speed Precip Events Conditions
12:56 AM 62.1 °F 55.0 °F 78% 29.81 in 10.0 mi WNW 3.5 mph - N/A   Clear
1:56 AM 62.1 °F 55.9 °F 80% 29.81 in 10.0 mi Calm Calm - N/A   Clear
2:56 AM 59.0 °F 54.0 °F 83% 29.82 in 10.0 mi NW 5.8 mph - N/A   Clear
3:56 AM 59.0 °F 54.0 °F 83% 29.83 in 10.0 mi NW 6.9 mph - N/A   Clear
4:56 AM 57.9 °F 53.1 °F 84% 29.83 in 10.0 mi NW 8.1 mph - N/A   Clear
5:56 AM 57.9 °F 53.1 °F 84% 29.86 in 10.0 mi NNW 5.8 mph - N/A   Clear
6:56 AM 59.0 °F 53.1 °F 81% 29.88 in 10.0 mi NNW 5.8 mph - N/A   Clear
7:56 AM 62.1 °F 53.1 °F 72% 29.90 in 10.0 mi North 11.5 mph 16.1 mph N/A   Clear
8:56 AM 64.0 °F 52.0 °F 65% 29.93 in 10.0 mi North 6.9 mph - N/A   Clear
9:56 AM 68.0 °F 51.1 °F 55% 29.93 in 10.0 mi North 11.5 mph 17.3 mph N/A   Scattered Clouds
10:56 AM 64.9 °F 48.9 °F 56% 29.96 in 10.0 mi NNE 10.4 mph - N/A   Mostly Cloudy
11:56 AM 69.1 °F 48.9 °F 49% 29.97 in 10.0 mi NNE 10.4 mph 20.7 mph N/A   Mostly Cloudy
12:56 PM 70.0 °F 48.9 °F 47% 29.98 in 10.0 mi NNE 9.2 mph 16.1 mph N/A   Mostly Cloudy
1:56 PM 69.1 °F 48.9 °F 49% 29.98 in 10.0 mi Variable 5.8 mph - N/A   Mostly Cloudy
2:56 PM 71.1 °F 48.9 °F 45% 29.98 in 10.0 mi North 4.6 mph - N/A   Mostly Cloudy
3:56 PM 75.0 °F 48.0 °F 38% 29.97 in 10.0 mi Variable 5.8 mph - N/A   Partly Cloudy
4:56 PM 75.0 °F 48.0 °F 38% 29.97 in 10.0 mi North 9.2 mph - N/A   Scattered Clouds
5:56 PM 73.9 °F 48.9 °F 41% 29.96 in 10.0 mi NNW 8.1 mph - N/A   Scattered Clouds
6:56 PM 73.9 °F 48.9 °F 41% 29.96 in 10.0 mi NNE 8.1 mph - N/A   Partly Cloudy
7:56 PM 71.1 °F 48.9 °F 45% 29.98 in 10.0 mi North 5.8 mph - N/A   Clear
8:56 PM 64.9 °F 48.9 °F 56% 29.99 in 10.0 mi NNE 4.6 mph - N/A   Clear
9:56 PM 63.0 °F 48.0 °F 58% 30.00 in 10.0 mi NE 5.8 mph - N/A   Clear
10:56 PM 63.0 °F 48.0 °F 58% 30.02 in 10.0 mi Calm Calm - N/A   Clear
11:56 PM 61.0 °F 50.0 °F 67% 30.02 in 10.0 mi Calm Calm - N/A   Overcast